Regional Weather Roundup
Issued by NWS Wakefield, VA

Home | Current Version | Previous Version | Text Only | Print | Product List | Glossary Off
Versions: 1 2 3 4 5 6 7 8 9 10 11 12 13 14 15 16 17 18 19 20 21 22 23 24 25 26 27 28 29 30 31 32 33 34 35 36 37 38 39 40 41 42 43 44 45 46 47 48 49 50

000
ASUS41 KAKQ 232215
RWRAKQ

REGIONAL WEATHER ROUNDUP
NATIONAL WEATHER SERVICE WAKEFIELD VA
600 PM EDT SAT MAY 23 2015

Note: "fair" indicates few or no clouds below 12,000 feet with no
significant weather and/or obstructions to visibility. * = Denotes
station may not report precipitation (e.g., rain,snow,etc.),
thunder or fog.

VAZ042-051-052>054-056-232300-
NORTHERN VIRGINIA

CITY           SKY/WX    TMP DP  RH WIND       PRES   REMARKS
WASH NATIONAL  MOSUNNY   73  41  31 SE8       30.38F
DULLES         MOSUNNY   72  40  31 SW7       30.36F
FORT BELVOIR   SUNNY     71  40  31 S6        30.37F
QUANTICO       SUNNY     72  40  31 S6        30.38F
FREDERICKSBRG* SUNNY     76  42  29 SW6       30.36F
STAFFORD*      SUNNY     72  36  26 W3        30.41F
WARRENTON      SUNNY     74  45  35 S3        30.37S
CULPEPER*      SUNNY     71  42  34 SW5       30.37F
MANASSAS*      SUNNY     72  37  28 CALM      30.37F
LEESBURG*      SUNNY     73  43  33 W3        30.37F
WINCHESTER     SUNNY     73  30  20 CALM      30.35F
FRONT ROYAL*   FAIR      72  46  40 E5        30.34F
LURAY*         FAIR      77  46  33 SW8       30.35S
$$

VAZ048-049-060>072-079>083-232300-
CENTRAL AND SOUTH CENTRAL VIRGINIA

CITY           SKY/WX    TMP DP  RH WIND       PRES   REMARKS
RICHMOND       MOSUNNY   74  43  32 S8        30.38F
CHESTERFIELD*  NOT AVBL
PETERSBURG*    SUNNY     75  42  29 SW5       30.38F
HANOVER        SUNNY     73  42  32 VRB3      30.39F
TAPPAHANNOCK*  SUNNY     74  30  19 SW3       30.39F
QUINTON*       FAIR      72  42  34 CALM      30.38F
CHARLOTTSVILLE MOSUNNY   73  45  36 S8        30.36F
GORDONSVILLE*  FAIR      72  44  36 S5        30.36F
ORANGE*        SUNNY     73  43  33 S3        30.38F
LOUISA*        SUNNY     73  46  38 S5        30.36F
BUMPASS*       FAIR      73  46  37 CALM      30.37F
FARMVILLE*     MOSUNNY   75  46  35 S5        30.36F
CREWE*         FAIR      73  46  37 CALM      30.37F
FORT PICKETT*  NOT AVBL
CHASE CITY*    FAIR      77  50  39 SE5       30.38S
CLARKSVILLE*   FAIR      73  48  40 CALM      30.37F
SOUTH HILL*    SUNNY     74  46  36 CALM      30.43F
LAWRENCEVILLE* FAIR      73  46  38 CALM      30.37F
EMPORIA*       SUNNY     73  45  35 CALM      30.40F
$$

VAZ088>098-232300-
SOUTHEAST VIRGINIA

CITY           SKY/WX    TMP DP  RH WIND       PRES   REMARKS
NORFOLK        SUNNY     67  42  40 NE9       30.40F
VIRGINIA BEACH MOSUNNY   66  48  52 E8        30.41S
NORFOLK NAVAL  MOSUNNY   71  45  39 E9        30.41F
WEST POINT*    SUNNY     75  32  20 CALM      30.40F
SALUDA*        FAIR      66  42  41 E9        30.40F
NEWPORT NEWS   SUNNY     73  45  36 E8        30.40F
LANGLEY AFB    SUNNY     67  47  48 VRB6      30.40F
FORT EUSTIS    SUNNY     70  50  50 S6        30.38F
WILLIAMSBURG*  SUNNY     75  50  41 SE6       30.40F
HR EXEC AP*    FAIR      73  46  38 NE3       30.40F
FRANKLIN*      SUNNY     75  45  34 E3        30.39S
WAKEFIELD      SUNNY     75  44  33 CALM      30.39F
$$

VAZ020-022-025-037-045-232300-
WEST CENTRAL AND SOUTHWEST VIRGINIA

CITY           SKY/WX    TMP DP  RH WIND       PRES   REMARKS
STAUNTON*      SUNNY     72  46  39 SE8       30.37S
WAYNESBORO*    FAIR      69  49  48 SE6       30.37S
HOT SPRINGS VA MOSUNNY   65  46  49 S8        30.41S
LYNCHBURG      SUNNY     73  47  39 S10       30.38F
DANVILLE       SUNNY     76  45  33 VRB3      30.37F
SOUTH BOSTON*  FAIR      75  45  34 SE3       30.37F
MARTINSVILLE   SUNNY     77  47  35 SE6       30.40S
ROANOKE        MOSUNNY   74  49  41 S9        30.37F
BLACKSBURG     MOSUNNY   72  48  42 SE8       30.41S
DUBLIN*        SUNNY     76  43  31 SW8       30.38F
MARION*        SUNNY     74  39  28 SE5       30.40S
HILLSVILLE*    SUNNY     70  45  40 SE7       30.41S
RICHLANDS*     MOCLDY    72  41  33 W5        30.39S
WISE*          PTSUNNY   73  34  23 CALM      30.40S
ABINGDON*      SUNNY     78  40  25 CALM      30.36S
$$

MDZ021>025-VAZ099-100-232300-
SOUTHERN MARYLAND AND THE DELMARVA PENINSULA

CITY           SKY/WX    TMP DP  RH WIND       PRES   REMARKS
PATUXENT RIVER MOSUNNY   67  38  34 SE8       30.39F
BAY BRIDGE APT   N/A    N/A N/A N/A S7        30.39S
LEONARDTOWN    SUNNY     70  34  26 CALM      30.40F
DOVER          SUNNY     69  36  29 SW10      30.36S
GEORGETOWN     SUNNY     69  30  23 W5        30.40S
EASTON         MOSUNNY   72  37  28 CALM      30.43F
CAMBRIDGE      SUNNY     72  32  23 NE3       30.39F
SALISBURY      MOSUNNY   65  47  52 SE10      30.40R
OCEAN CITY     MOSUNNY   59  44  57 S7        30.42S
WALLOPS ISLAND MOSUNNY   61  48  62 S8        30.42F
ACCOMACK*      SUNNY     66  52  59 S5        30.41S
$$

NCZ012>017-030>032-232300-
NORTH CENTRAL AND EASTERN NORTH CAROLINA

CITY           SKY/WX    TMP DP  RH WIND       PRES   REMARKS
ROANOKE RAPIDS FAIR      75  48  38 CALM      30.37F
RALEIGH        MOSUNNY   77  46  33 CALM      30.37F
ELIZABETH CITY SUNNY     68  48  48 E9        30.41S
AHOSKIE*       SUNNY     75  49  40 CALM      30.38F
EDENTON*       SUNNY     70  52  51 E10       30.41S
CURRITUCK*     SUNNY     65  44  45 E5        30.43S
KILL DEVIL HLS SUNNY     64  52  67 NE8       30.41F
MANTEO         MOSUNNY   64  52  64 NE10      30.42F
CAPE HATTERAS  SUNNY     67  53  61 NE9       30.41S
TARBORO*       FAIR      79  49  35 CALM      30.38S
GOLDSBORO      SUNNY     77  49  36 CALM      30.34S
WASHINGTON     SUNNY     75  49  39 E7        30.39S
GREENVILLE     SUNNY     77  50  38 SE7       30.38S
NEW BERN       SUNNY     75  54  47 SE9       30.40R
WILMINGTON     SUNNY     76  51  41 SE10      30.37F
$$

VAZ048-232300-
ELSEWHERE

CITY           SKY/WX    TMP DP  RH WIND       PRES   REMARKS
HARRISBURG PA  MOSUNNY   70  36  28 SE6       30.35F
BALTIMORE      MOSUNNY   72  33  24 W7        30.36F
ANNAPOLIS      SUNNY     65  40  39 SE13      30.38F
ANDREWS AFB    SUNNY     70  38  30 S5        30.37F
PHILADELPHIA   MOSUNNY   70  27  20 SW12      30.37S
HENDERSON NC   SUNNY     75  41  29 CALM      30.38F
GREENSBORO     MOSUNNY   76  46  34 S10G16    30.36F
ROCKY MOUNT    SUNNY     79  49  34 SE5       30.37F
$$

VAZ100-232300-
MARINE

STATION/POSITION TIME  TEMP    WIND        PRES    WAVE   SWELL
                       AIR SEA DIR/SP/G            HT/PER HT/PER
                 (UTC) (F)     (DEG/KT/KT) (MB)    (FT/S) (FT/S)
BRANDYWINE LGT   2100   61 64   20/  5/  6 1029.4F
CAPE MAY NJ      2100   64 67  340/  5/  8 1029.0F
LEWES DE         2100   62 64  140/  7/ 10 1029.4F
15NM E FENWICK I 2150   57 60              1029.9F   2/ 6
OCEAN-CITY-INLET 2100   59 61  170/  7/  9 1030.0R
WACHAPREAGUE VA  2100   62 73  180/  7/  9 1030.2F
THOMAS POINT MD  2200   66 66  150/  8/  9 1029.4F
GOOSES REEF MD   2200   65 65  170/ 10/ 12 1029.9F   1
SOLOMONS ISLAND  2100      69                N/A
BISHOPS HEAD MD  2100   64 72  230/  6/ 10 1029.5S
PINEY POINT MD   2100          170/  4/  6   N/A
CAMBRIDGE MD     2100   66 69   10/  5/  6 1029.4F
LEWISETTA VA     2100   65 69              1029.3F
RAPPAHANNOCK LGT 2100          360/  4/  4 1030.5F
STINGRAY PT      2200   65 69  140/  4/  6 1029.5F   0
YORK RVR RNG VA  2100   65     110/  6/  8 1029.5F
YORKTOWN VA      2100   66 70   90/  8/ 11 1029.6F
JAMESTOWN VA     2200   69 75  150/ 10/ 12 1028.2F
DOMINION TERM VA 2100   65      80/  8/ 11 1030.0F
KIPTOPEKE VA     2100      74  170/  6/  9   N/A
CHES BAY BRIDGE  2100   62 68   60/  6/  7 1029.8F
CAPE HENRY VA    2100   62      90/  5/  7 1028.9F
CHESAPEAKE LGHT  2100   59     110/  8/  9 1030.9F
WILLOUBY STN VA  2100   63      80/  7/  9 1030.6F
CAPE HENRY BUOY  2128      62                N/A     2/ 4
1ST LANDING BUOY 2200      69              1029.5F
CAPE CHARLES BUO 2126      65                N/A     2/ 4   2/ 4
OFFSHORE WE BUOY 2111      61                N/A     2/ 4   2/ 4
64NM E OF VA BCH 2150   61 61   30/  8/ 10 1029.7R   2/ 4   2/ 4
DUCK PIER NC     2100   61 65   50/ 10/ 11 1029.3F
44100 DUCK FRF   2124      61                N/A     3/ 4
44056 DUCK FRF   2111      63                N/A     2/ 4
OREGON INLET NC  2100   63 71   20/ 10/ 14 1029.9F
HATTERAS NC      2100   68 73   50/  9/ 13 1029.0F
DIAMOND SHLS NC  2150   69 77   30/ 14/ 16 1029.1F   4/ 9   2/ 9
CAPE LOOKOUT NC  2200   70      70/ 14/ 15 1028.7F
$$


USA.gov is the U.S. government's official web portal to all federal, state and local government web resources and services.